VJT567 LIRA-LOWI

Flight info

Callsign VJT567
Flight time 1h 0m
Altitude 40000
Route SOVAN DCT AMTEL DCT NUKNI DCT DIKEM DCT EKPIS/N0375F160 M726 BRENO BRENO3A
Aircraft CL60/M-SBDE1E2E3FGHIJ1J4J5J7M3RWXYZ/LB1V1D1

Departure

Time 2026-05-07 14:24
Airport Ciampino–G. B. Pastine International Airport (LIRA)

Arrival

Time 2026-05-07 15:24
Airport Innsbruck Airport (LOWI)
Time Latitude Longitude Altitude Speed Heading
2026-05-07 13:58 41.79516 12.59343 428 ft 0 kts 53°
2026-05-07 14:18 41.79517 12.59346 428 ft 1 kts 75°
2026-05-07 14:19 41.79497 12.59385 428 ft 7 kts 122°
2026-05-07 14:19 41.79501 12.59466 428 ft 11 kts 49°
2026-05-07 14:19 41.79572 12.59526 428 ft 14 kts 352°
2026-05-07 14:19 41.79670 12.59460 428 ft 17 kts 334°
2026-05-07 14:20 41.79789 12.59381 428 ft 20 kts 333°
2026-05-07 14:20 41.79892 12.59309 428 ft 12 kts 332°
2026-05-07 14:20 41.79964 12.59261 428 ft 11 kts 334°
2026-05-07 14:20 41.80046 12.59206 428 ft 14 kts 333°
2026-05-07 14:21 41.80146 12.59136 428 ft 17 kts 332°
2026-05-07 14:21 41.80264 12.59053 428 ft 20 kts 333°
2026-05-07 14:21 41.80393 12.58958 428 ft 19 kts 328°
2026-05-07 14:21 41.80508 12.58884 428 ft 17 kts 334°
2026-05-07 14:22 41.80608 12.58816 428 ft 15 kts 334°
2026-05-07 14:22 41.80706 12.58766 428 ft 11 kts
2026-05-07 14:22 41.80765 12.58845 428 ft 8 kts 64°
2026-05-07 14:22 41.80772 12.58863 428 ft 3 kts 63°
2026-05-07 14:23 41.80777 12.58905 428 ft 6 kts 135°
2026-05-07 14:23 41.80773 12.58908 428 ft 4 kts 152°
2026-05-07 14:23 41.80426 12.59144 428 ft 111 kts 152°
2026-05-07 14:23 41.79469 12.59807 509 ft 188 kts 153°
2026-05-07 14:24 41.78213 12.60646 1236 ft 219 kts 154°
2026-05-07 14:24 41.76661 12.61308 1929 ft 256 kts 175°
2026-05-07 14:24 41.74910 12.60840 3215 ft 271 kts 207°
2026-05-07 14:24 41.73478 12.59253 4644 ft 279 kts 233°
2026-05-07 14:25 41.72650 12.56921 5865 ft 294 kts 258°
2026-05-07 14:25 41.72655 12.54238 7329 ft 298 kts 283°
2026-05-07 14:25 41.73403 12.51694 8951 ft 296 kts 295°
2026-05-07 14:25 41.74258 12.49239 10382 ft 299 kts 292°
2026-05-07 14:26 41.75052 12.46728 11715 ft 303 kts 290°
2026-05-07 14:26 41.75818 12.44070 12812 ft 314 kts 288°
2026-05-07 14:26 41.76537 12.41306 13894 ft 322 kts 286°
2026-05-07 14:26 41.77191 12.38448 15015 ft 327 kts 284°
2026-05-07 14:27 41.77821 12.35530 16099 ft 331 kts 284°
2026-05-07 14:27 41.78464 12.32557 17189 ft 334 kts 283°
2026-05-07 14:27 41.79117 12.29558 18195 ft 338 kts 285°
2026-05-07 14:27 41.80126 12.26678 19222 ft 345 kts 299°
2026-05-07 14:28 41.81741 12.24260 20142 ft 358 kts 316°
2026-05-07 14:28 41.83945 12.22614 21106 ft 371 kts 336°
2026-05-07 14:28 41.86464 12.21705 21938 ft 380 kts 340°
2026-05-07 14:28 41.89037 12.20870 22828 ft 383 kts 340°
2026-05-07 14:29 41.91615 12.20024 23700 ft 387 kts 340°
2026-05-07 14:29 41.94251 12.19155 24445 ft 393 kts 339°
2026-05-07 14:29 41.96918 12.18276 25190 ft 399 kts 340°
2026-05-07 14:29 41.99636 12.17379 25911 ft 403 kts 339°
2026-05-07 14:30 42.02351 12.16484 26686 ft 405 kts 339°
2026-05-07 14:30 42.05107 12.15573 27314 ft 411 kts 338°
2026-05-07 14:30 42.07941 12.14633 27772 ft 419 kts 338°
2026-05-07 14:30 42.10740 12.13707 28474 ft 420 kts 338°
2026-05-07 14:31 42.13625 12.12753 29133 ft 422 kts 338°
2026-05-07 14:31 42.16498 12.11798 29544 ft 429 kts 337°
2026-05-07 14:31 42.19420 12.10826 30098 ft 432 kts 338°
2026-05-07 14:31 42.22345 12.09850 30643 ft 435 kts 337°
2026-05-07 14:32 42.25257 12.08873 31091 ft 439 kts 338°
2026-05-07 14:32 42.28227 12.07878 31623 ft 440 kts 337°
2026-05-07 14:32 42.31214 12.06875 32069 ft 443 kts 337°
2026-05-07 14:32 42.34227 12.05862 32435 ft 447 kts 337°
2026-05-07 14:33 42.37252 12.04845 32860 ft 449 kts 337°
2026-05-07 14:33 42.40302 12.03819 33309 ft 448 kts 337°
2026-05-07 14:33 42.43324 12.02801 33662 ft 451 kts 337°
2026-05-07 14:33 42.46411 12.01759 33958 ft 454 kts 336°
2026-05-07 14:34 42.49474 12.00725 34396 ft 452 kts 337°
2026-05-07 14:34 42.52485 11.99712 34869 ft 448 kts 336°
2026-05-07 14:34 42.55518 11.98688 35347 ft 444 kts 337°
2026-05-07 14:34 42.58511 11.97675 35686 ft 443 kts 337°
2026-05-07 14:35 42.61491 11.96664 36045 ft 442 kts 337°
2026-05-07 14:35 42.64490 11.95644 36321 ft 444 kts 336°
2026-05-07 14:35 42.67461 11.94633 36636 ft 445 kts 336°
2026-05-07 14:35 42.70462 11.93612 37029 ft 444 kts 337°
2026-05-07 14:36 42.73465 11.92589 37428 ft 443 kts 337°
2026-05-07 14:36 42.76459 11.91569 37806 ft 442 kts 337°
2026-05-07 14:36 42.79418 11.90559 38119 ft 441 kts 336°
2026-05-07 14:36 42.82389 11.89464 38371 ft 437 kts 333°
2026-05-07 14:37 42.85152 11.87927 38629 ft 427 kts 324°
2026-05-07 14:37 42.90386 11.84124 38987 ft 426 kts 323°
2026-05-07 14:37 42.92980 11.82226 39229 ft 426 kts 323°
2026-05-07 14:38 42.95613 11.80299 39450 ft 425 kts 323°
2026-05-07 14:38 42.98192 11.78410 39579 ft 425 kts 323°
2026-05-07 14:38 43.00832 11.76472 39744 ft 427 kts 323°
2026-05-07 14:38 43.03424 11.74569 39908 ft 427 kts 323°
2026-05-07 14:39 43.08683 11.70700 39974 ft 432 kts 323°
2026-05-07 14:39 43.14052 11.66741 39953 ft 438 kts 324°
2026-05-07 14:40 43.19525 11.62941 39947 ft 450 kts 330°
2026-05-07 14:40 43.25686 11.60629 39942 ft 472 kts 345°
2026-05-07 14:41 43.32336 11.59949 39976 ft 479 kts 349°
2026-05-07 14:41 43.38991 11.59364 39981 ft 485 kts 349°
2026-05-07 14:42 43.45766 11.58767 39976 ft 489 kts 349°
2026-05-07 14:42 43.52562 11.58170 39966 ft 486 kts 349°
2026-05-07 14:43 43.59284 11.57577 39995 ft 485 kts 350°
2026-05-07 14:43 43.66016 11.56979 39959 ft 487 kts 350°
2026-05-07 14:44 43.72747 11.56381 39950 ft 486 kts 350°
2026-05-07 14:44 43.79503 11.55778 40045 ft 486 kts 350°
2026-05-07 14:45 43.82854 11.55518 39935 ft 488 kts 351°
2026-05-07 14:45 43.86247 11.55292 40007 ft 487 kts 351°
2026-05-07 14:45 43.93050 11.54832 39999 ft 489 kts 351°
2026-05-07 14:46 43.99786 11.54377 40014 ft 487 kts 352°
2026-05-07 14:46 44.06585 11.53913 40003 ft 488 kts 351°
2026-05-07 14:47 44.13407 11.53448 39939 ft 487 kts 352°
2026-05-07 14:47 44.20151 11.52986 39968 ft 489 kts 352°
2026-05-07 14:48 44.26935 11.52520 39981 ft 490 kts 352°
2026-05-07 14:48 44.33733 11.52052 39940 ft 490 kts 352°
2026-05-07 14:49 44.40579 11.51580 39963 ft 491 kts 352°
2026-05-07 14:49 44.47353 11.51112 39960 ft 489 kts 352°
2026-05-07 14:50 44.54136 11.50641 39971 ft 489 kts 352°
2026-05-07 14:50 44.60978 11.50164 39959 ft 492 kts 352°
2026-05-07 14:51 44.67789 11.49690 39997 ft 490 kts 352°
2026-05-07 14:51 44.74593 11.49213 39940 ft 492 kts 352°
2026-05-07 14:52 44.81429 11.48735 39944 ft 491 kts 352°
2026-05-07 14:52 44.88234 11.48257 39950 ft 492 kts 352°
2026-05-07 14:53 44.95090 11.47773 39948 ft 494 kts 353°
2026-05-07 14:53 45.01919 11.47291 39928 ft 495 kts 352°
2026-05-07 14:54 45.08802 11.46805 39931 ft 495 kts 352°
2026-05-07 14:54 45.15695 11.46317 39977 ft 493 kts 352°
2026-05-07 14:55 45.22538 11.45830 39934 ft 492 kts 353°
2026-05-07 14:55 45.29350 11.45346 39950 ft 491 kts 352°
2026-05-07 14:56 45.36165 11.44858 39925 ft 493 kts 352°
2026-05-07 14:56 45.42988 11.44370 39948 ft 492 kts 353°
2026-05-07 14:57 45.49816 11.43880 39979 ft 491 kts 353°
2026-05-07 14:57 45.56676 11.43386 39962 ft 494 kts 353°
2026-05-07 14:58 45.63522 11.42893 39973 ft 491 kts 353°
2026-05-07 14:58 45.70306 11.42403 39985 ft 490 kts 353°
2026-05-07 14:59 45.77144 11.41907 39939 ft 491 kts 353°
2026-05-07 14:59 45.83991 11.41409 39941 ft 490 kts 353°
2026-05-07 15:00 45.90787 11.40914 39961 ft 492 kts 353°
2026-05-07 15:00 45.97635 11.40414 39943 ft 492 kts 353°
2026-05-07 15:01 46.04419 11.39923 39989 ft 490 kts 353°
2026-05-07 15:01 46.11277 11.39520 40002 ft 490 kts 354°
2026-05-07 15:02 46.18147 11.39122 39974 ft 492 kts 354°
2026-05-07 15:02 46.25030 11.38723 39917 ft 492 kts 354°
2026-05-07 15:03 46.28441 11.38524 39639 ft 498 kts 353°
2026-05-07 15:03 46.31911 11.38320 38983 ft 499 kts 353°
2026-05-07 15:03 46.35380 11.38119 38398 ft 495 kts 354°
2026-05-07 15:03 46.38813 11.37920 37708 ft 496 kts 354°
2026-05-07 15:04 46.42265 11.37719 37040 ft 492 kts 353°
2026-05-07 15:04 46.45655 11.37522 36425 ft 489 kts 353°
2026-05-07 15:04 46.49065 11.37322 35745 ft 487 kts 353°
2026-05-07 15:04 46.52421 11.37125 35073 ft 485 kts 353°
2026-05-07 15:05 46.55771 11.36928 34471 ft 485 kts 353°
2026-05-07 15:05 46.59142 11.36727 33882 ft 486 kts 353°
2026-05-07 15:05 46.62530 11.36527 33193 ft 488 kts 353°
2026-05-07 15:05 46.65915 11.36327 32506 ft 481 kts 354°
2026-05-07 15:06 46.69214 11.36135 31971 ft 472 kts 354°
2026-05-07 15:06 46.72475 11.35944 31357 ft 464 kts 354°
2026-05-07 15:06 46.75667 11.35755 30747 ft 459 kts 355°
2026-05-07 15:06 46.78828 11.35632 30135 ft 454 kts 358°
2026-05-07 15:07 46.81972 11.35892 29574 ft 453 kts
2026-05-07 15:07 46.85137 11.36247 28909 ft 449 kts
2026-05-07 15:07 46.88227 11.36589 28379 ft 442 kts
2026-05-07 15:07 46.91260 11.36607 27706 ft 435 kts 352°
2026-05-07 15:08 46.94185 11.35609 27062 ft 427 kts 339°
2026-05-07 15:08 46.96780 11.33650 26412 ft 417 kts 324°
2026-05-07 15:08 46.98964 11.30884 25662 ft 414 kts 311°
2026-05-07 15:08 47.00616 11.27477 24973 ft 406 kts 298°
2026-05-07 15:09 47.01768 11.23727 24457 ft 402 kts 292°
2026-05-07 15:09 47.02775 11.19946 23977 ft 399 kts 291°
2026-05-07 15:09 47.03772 11.16215 23449 ft 394 kts 291°
2026-05-07 15:09 47.04768 11.12486 22951 ft 388 kts 291°
2026-05-07 15:10 47.05736 11.08854 22416 ft 385 kts 291°
2026-05-07 15:10 47.06708 11.05208 21937 ft 378 kts 291°
2026-05-07 15:10 47.07648 11.01677 21431 ft 372 kts 291°
2026-05-07 15:10 47.08587 10.98142 20965 ft 369 kts 291°
2026-05-07 15:11 47.09508 10.94674 20447 ft 366 kts 291°
2026-05-07 15:11 47.10423 10.91223 19989 ft 360 kts 291°
2026-05-07 15:11 47.11311 10.87872 19495 ft 349 kts 291°
2026-05-07 15:11 47.12178 10.84594 19109 ft 332 kts 291°
2026-05-07 15:12 47.13005 10.81465 18635 ft 322 kts 291°
2026-05-07 15:12 47.13805 10.78434 18242 ft 314 kts 291°
2026-05-07 15:12 47.14584 10.75478 17827 ft 309 kts 291°
2026-05-07 15:12 47.15356 10.72547 17401 ft 306 kts 291°
2026-05-07 15:13 47.16118 10.69648 16995 ft 307 kts 291°
2026-05-07 15:13 47.17117 10.66920 16604 ft 306 kts 308°
2026-05-07 15:13 47.18692 10.64884 16149 ft 303 kts 328°
2026-05-07 15:13 47.20527 10.63467 15771 ft 296 kts 336°
2026-05-07 15:14 47.22580 10.62851 15075 ft 308 kts 357°
2026-05-07 15:14 47.24696 10.63200 14463 ft 304 kts
2026-05-07 15:14 47.26682 10.63906 14238 ft 292 kts 20°
2026-05-07 15:14 47.28400 10.65590 13193 ft 311 kts 49°
2026-05-07 15:15 47.29328 10.68466 12287 ft 314 kts 82°
2026-05-07 15:15 47.29408 10.71563 11918 ft 300 kts 89°
2026-05-07 15:15 47.29474 10.74614 11431 ft 292 kts 85°
2026-05-07 15:15 47.29607 10.77526 11038 ft 282 kts 85°
2026-05-07 15:16 47.29749 10.80367 10568 ft 279 kts 84°
2026-05-07 15:16 47.29888 10.83170 10109 ft 274 kts 84°
2026-05-07 15:16 47.30026 10.85947 9718 ft 267 kts 84°
2026-05-07 15:16 47.30158 10.88618 9291 ft 260 kts 84°
2026-05-07 15:17 47.30283 10.91188 8885 ft 245 kts 84°
2026-05-07 15:17 47.30402 10.93623 8505 ft 232 kts 84°
2026-05-07 15:17 47.30515 10.95937 8126 ft 224 kts 84°
2026-05-07 15:17 47.30622 10.98135 7739 ft 205 kts 84°
2026-05-07 15:18 47.30716 11.00114 7473 ft 183 kts 83°
2026-05-07 15:18 47.30808 11.01980 7180 ft 184 kts 83°
2026-05-07 15:18 47.30897 11.03821 6871 ft 178 kts 83°
2026-05-07 15:18 47.30970 11.05654 6629 ft 181 kts 87°
2026-05-07 15:19 47.30826 11.07499 6292 ft 181 kts 102°
2026-05-07 15:19 47.30389 11.09209 6028 ft 181 kts 113°
2026-05-07 15:19 47.29841 11.10866 5710 ft 174 kts 114°
2026-05-07 15:19 47.29330 11.12406 5415 ft 163 kts 114°
2026-05-07 15:20 47.28842 11.13888 5161 ft 158 kts 114°
2026-05-07 15:20 47.28370 11.15329 4911 ft 157 kts 114°
2026-05-07 15:20 47.27897 11.16766 4683 ft 156 kts 114°
2026-05-07 15:20 47.27434 11.18169 4454 ft 150 kts 114°
2026-05-07 15:21 47.26986 11.19524 4186 ft 142 kts 113°
2026-05-07 15:21 47.26566 11.20800 3962 ft 138 kts 113°
2026-05-07 15:21 47.26129 11.22130 3732 ft 149 kts 114°
2026-05-07 15:21 47.25677 11.23493 3523 ft 144 kts 114°
2026-05-07 15:22 47.25343 11.24785 3416 ft 137 kts 98°
2026-05-07 15:22 47.25279 11.26168 3062 ft 136 kts 87°
2026-05-07 15:22 47.25310 11.26950 2893 ft 134 kts 82°
2026-05-07 15:22 47.25420 11.28295 2683 ft 133 kts 82°
2026-05-07 15:23 47.25531 11.29627 2481 ft 130 kts 82°
2026-05-07 15:23 47.25668 11.30940 2296 ft 129 kts 82°
2026-05-07 15:23 47.25781 11.32235 2092 ft 129 kts 79°
2026-05-07 15:23 47.25924 11.33526 1924 ft 122 kts 77°
2026-05-07 15:24 47.26045 11.34609 1914 ft 86 kts 81°
2026-05-07 15:24 47.26097 11.35102 1914 ft 22 kts 79°
2026-05-07 15:24 47.26102 11.35233 1914 ft 7 kts 119°
2026-05-07 15:24 47.26063 11.35259 1914 ft 6 kts 171°
2026-05-07 15:25 47.26024 11.35269 1914 ft 5 kts 170°
2026-05-07 15:25 47.25995 11.35276 1914 ft 3 kts 170°
2026-05-07 15:25 47.25974 11.35282 1914 ft 3 kts 170°
2026-05-07 15:25 47.25944 11.35289 1914 ft 4 kts 170°
2026-05-07 15:26 47.25917 11.35323 1914 ft 6 kts 95°
2026-05-07 15:26 47.25931 11.35385 1914 ft 5 kts 80°
2026-05-07 15:26 47.25927 11.35407 1914 ft 1 kts 145°
2026-05-07 15:26 47.25914 11.35414 1914 ft 0 kts 165°
2026-05-07 15:27 47.25910 11.35412 1914 ft 0 kts 245°
2026-05-07 15:27 47.25909 11.35409 1914 ft 0 kts 262°